This is the latest recevied weather packets stored in our database for station/object EA5JMY-13. If no packets are shown the sender has not sent any weather packets the latest 10 day(s).
| Time | Temp. | Humidity | Pressure | Rain* | Wind** | Luminosity | Snow |
|---|---|---|---|---|---|---|---|
| 1778074291 | 23.33° C | 42% | 1011.6 hPa | - | - | - | - |
| 1778074171 | 23.33° C | 41% | 1011.6 hPa | - | - | - | - |
| 1778074052 | 23.33° C | 41% | 1011.6 hPa | - | - | - | - |
| 1778073932 | 23.33° C | 41% | 1011.7 hPa | - | - | - | - |
| 1778073811 | 23.33° C | 42% | 1011.7 hPa | - | - | - | - |
| 1778073691 | 23.33° C | 43% | 1011.7 hPa | - | - | - | - |
| 1778073571 | 22.78° C | 42% | 1011.7 hPa | - | - | - | - |
| 1778073451 | 23.33° C | 42% | 1011.8 hPa | - | - | - | - |
| 1778073332 | 23.33° C | 41% | 1011.8 hPa | - | - | - | - |
| 1778073211 | 23.89° C | 40% | 1011.7 hPa | - | - | - | - |
| 1778073091 | 23.89° C | 39% | 1011.7 hPa | - | - | - | - |
| 1778072971 | 23.89° C | 40% | 1011.7 hPa | - | - | - | - |
| 1778072851 | 23.89° C | 39% | 1011.9 hPa | - | - | - | - |
| 1778072731 | 24.44° C | 39% | 1011.8 hPa | - | - | - | - |
| 1778072611 | 24.44° C | 37% | 1011.6 hPa | - | - | - | - |
| 1778072491 | 23.89° C | 37% | 1011.7 hPa | - | - | - | - |
| 1778072371 | 23.89° C | 38% | 1011.8 hPa | - | - | - | - |
| 1778072251 | 23.89° C | 38% | 1011.7 hPa | - | - | - | - |
| 1778072131 | 23.33° C | 40% | 1011.9 hPa | - | - | - | - |
| 1778072011 | 23.89° C | 39% | 1011.8 hPa | - | - | - | - |
| 1778071891 | 23.89° C | 40% | 1011.8 hPa | - | - | - | - |
| 1778071771 | 23.89° C | 40% | 1011.8 hPa | - | - | - | - |
| 1778071651 | 23.89° C | 40% | 1011.9 hPa | - | - | - | - |
| 1778071531 | 23.89° C | 40% | 1011.9 hPa | - | - | - | - |
| 1778071412 | 23.33° C | 40% | 1011.9 hPa | - | - | - | - |
* Rain since midnight (hover to see other rain measurements)
** Current wind speed in m/s (hover to see current wind gust speed)